[[{"header":{"parameterUnit":"m.s-1","parameterCategory":1,"la1":30.2992,"la2":30.254,"lo1":-89.0895,"lo2":-89.0443,"dy":0.0025,"dx":0.0025,"nx":19,"ny":19,"refTime":"2026-03-24T03:00:00:Z","depth":0,"parameterNumber":2,"parameterNumberName":"U-component_of_WINDS"},"data":[0,0,0,-3.0143,-3.0144,-3.0219,-3.0219,-3.0339,-3.034,0,0,0,0,0,0,0,0,0,0,0,-3.0135,-3.0137,-3.0142,-3.0145,-3.0219,-3.0219,-3.0338,-3.034,0,0,0,0,0,0,0,0,0,0,0,-3.0135,-3.0136,-3.0138,-3.0145,-3.0219,-3.0219,-3.0338,-3.0273,0,0,0,0,0,0,0,0,0,0,-3.0197,-3.0205,-3.0136,-3.0138,-3.0145,-3.0219,-3.0219,-3.027,-3.0277,-3.0315,0,-3.0353,0,-3.0348,-3.0349,-3.035,0,0,0,-3.0134,-3.0199,-3.0205,-3.0138,-3.0146,-3.0219,-3.0182,-3.0274,-3.0282,-3.0326,-3.0355,-3.0358,-3.035,-3.035,-3.0351,-3.0607,-3.0609,0,0,-3.013,-3.0157,-3.0199,-3.0211,-3.0202,-3.018,-3.0185,-3.0278,-3.0312,-3.0355,-3.0361,-3.0352,-3.0351,-3.0352,-3.0605,-3.0608,0,0,0,-3.0125,-3.0155,-3.0158,-3.0207,-3.0219,-3.0182,-3.0188,-3.0308,-3.0307,-3.0362,-3.0354,-3.0352,-3.0354,-3.0604,-3.0606,-3.0719,0,0,0,-3.0122,-3.0152,-3.0157,-3.0175,-3.0218,-3.0264,-3.0216,-3.03,-3.031,-3.0353,-3.0352,-3.0355,-3.0602,-3.0605,-3.0712,-3.0768,0,0,0,-3.0125,-3.0152,-3.0168,-3.0176,-3.0209,-3.0262,-3.0266,-3.0302,-3.0306,-3.035,-3.0356,-3.06,-3.0604,-3.0705,-3.0758,-3.0845,0,0,0,-3.0137,-3.0267,-3.017,-3.0312,-3.0208,-3.0331,-3.0265,-3.0355,-3.0406,-3.0353,-3.0602,-3.0606,-3.0703,-3.0751,-3.0838,-3.0925,-3.0963,0,0,-3.0316,-3.0289,-3.037,-3.0286,-3.0433,-3.0317,-3.048,-3.0501,-3.048,-3.0566,-3.0572,-3.0714,-3.0757,-3.0843,-3.1163,-3.1194,0,0,0,-3.0437,-3.0496,-3.0528,-3.0578,-3.0597,-3.0618,-3.061,-3.0618,-3.0689,-3.0529,-3.0767,-3.0792,-3.0841,-3.0882,-3.0908,-3.0949,-3.0625,-3.0625,-3.0624,-3.0732,-3.0697,-3.0829,-3.0803,-3.0852,-3.0843,-3.088,-3.0888,-3.0839,-3.0895,-3.0922,-3.112,-3.1168,-3.1187,-3.1231,-3.0962,-3.0963,-3.0963,-3.0964,-3.0993,-3.1072,-3.1002,-3.1105,-3.1067,-3.1154,-3.1149,-3.1111,-3.1186,-3.1097,-3.1139,-3.1048,-3.1222,-3.1258,-3.0972,-3.097,-3.0969,-3.0969,-3.0968,-3.1185,-3.1216,-3.1222,-3.129,-3.1346,-3.1315,-3.139,-3.1352,-3.1317,-3.1359,-3.1383,-3.1381,-3.1376,-3.1372,-3.1373,-3.1374,-3.1374,-3.1375,-3.1375,-3.1382,-3.1385,-3.1453,-3.1483,-3.1509,-3.154,-3.153,-3.1555,-3.1574,-3.154,-3.154,-3.1487,-3.1244,-3.1186,-3.1386,-3.1384,-3.1382,-3.1381,-3.1381,-3.1665,-3.1594,-3.17,-3.1727,-3.1758,-3.1816,-3.1766,-3.182,-3.1835,-3.1874,-3.181,-3.1636,-3.1606,-3.1585,-3.1537,-3.1816,-3.1816,-3.1816,-3.1816,-3.1828,-3.1808,-3.1908,-3.1953,-3.1992,-3.1957,-3.2078,-3.2071,-3.2053,-3.206,-3.2013,-3.1944,-3.1924,-3.1906,-3.1878,-3.1833,-3.2181,-3.2181,-3.2181,-3.2001,-3.1983,-3.2093,-3.2074,-3.2095,-3.2114,-3.2226,-3.2281,-3.2245,-3.2195,-3.2065,-3.2049,-3.1938,-3.1903,-3.1854,-3.1812,-3.1726,0,0]},{"header":{"parameterUnit":"m.s-1","parameterCategory":1,"la1":30.2992,"la2":30.254,"lo1":-89.0895,"lo2":-89.0443,"dy":0.0025,"dx":0.0025,"nx":19,"ny":19,"refTime":"2026-03-24T03:00:00:Z","depth":0,"parameterNumber":3,"parameterNumberName":"V-component_of_WINDS"},"data":[0,0,0,-4.333,-4.3333,-4.3453,-4.3453,-4.3612,-4.3614,0,0,0,0,0,0,0,0,0,0,0,-4.3301,-4.3302,-4.333,-4.3333,-4.3453,-4.3453,-4.3612,-4.3614,0,0,0,0,0,0,0,0,0,0,0,-4.33,-4.3302,-4.3304,-4.3334,-4.3453,-4.3454,-4.3612,-4.3518,0,0,0,0,0,0,0,0,0,0,-4.34,-4.3381,-4.3302,-4.3304,-4.3334,-4.3453,-4.3454,-4.3514,-4.3524,-4.3561,0,-4.3599,0,-4.3609,-4.3625,-4.3626,0,0,0,-4.3327,-4.3372,-4.3399,-4.3304,-4.3336,-4.3453,-4.3397,-4.3519,-4.3531,-4.3575,-4.3601,-4.3607,-4.3612,-4.3626,-4.3627,-4.3867,-4.3868,0,0,-4.3321,-4.3326,-4.3391,-4.3407,-4.3393,-4.3393,-4.3401,-4.3526,-4.3554,-4.3602,-4.361,-4.3614,-4.3627,-4.3629,-4.3866,-4.3867,0,0,0,-4.3306,-4.3321,-4.3345,-4.3401,-4.3422,-4.3397,-4.3406,-4.3548,-4.3556,-4.3612,-4.3616,-4.3628,-4.363,-4.3864,-4.3866,-4.3941,0,0,0,-4.3301,-4.3312,-4.3342,-4.3346,-4.342,-4.3488,-4.3425,-4.3547,-4.3561,-4.3615,-4.3628,-4.3632,-4.3863,-4.3865,-4.3936,-4.3975,0,0,0,-4.3291,-4.3311,-4.3331,-4.3346,-4.3398,-4.3485,-4.35,-4.355,-4.3564,-4.3626,-4.3632,-4.3862,-4.3865,-4.3931,-4.3967,-4.404,0,0,0,-4.328,-4.3394,-4.3332,-4.3461,-4.3397,-4.3532,-4.3499,-4.3598,-4.366,-4.3629,-4.3863,-4.3866,-4.3929,-4.3962,-4.4035,-4.4102,-4.4131,0,0,-4.3427,-4.3412,-4.3487,-4.3435,-4.3583,-4.3513,-4.367,-4.372,-4.372,-4.3817,-4.3823,-4.3937,-4.3967,-4.4039,-4.429,-4.4312,0,0,0,-4.3535,-4.3589,-4.3627,-4.3688,-4.3731,-4.377,-4.3797,-4.3815,-4.3898,-4.3772,-4.3983,-4.4,-4.4042,-4.4074,-4.4094,-4.4129,-4.3881,-4.3881,-4.388,-4.3749,-4.3745,-4.3868,-4.3879,-4.3937,-4.3964,-4.401,-4.4039,-4.4015,-4.4065,-4.4094,-4.4247,-4.4285,-4.4299,-4.4336,-4.4129,-4.4129,-4.413,-4.413,-4.3963,-4.4038,-4.4006,-4.4115,-4.4108,-4.4198,-4.4227,-4.4207,-4.4288,-4.4225,-4.4262,-4.4193,-4.4325,-4.4357,-4.4135,-4.4135,-4.4134,-4.4133,-4.4133,-4.4102,-4.4138,-4.416,-4.4247,-4.4314,-4.4318,-4.4398,-4.4388,-4.4379,-4.4416,-4.4445,-4.4444,-4.4441,-4.443,-4.4431,-4.4432,-4.4432,-4.4432,-4.4433,-4.4238,-4.4261,-4.4331,-4.4387,-4.4424,-4.4471,-4.4498,-4.4534,-4.457,-4.4556,-4.4556,-4.4527,-4.4339,-4.4292,-4.4441,-4.4439,-4.4438,-4.4438,-4.4437,-4.4457,-4.4406,-4.4514,-4.4552,-4.4616,-4.4682,-4.4669,-4.4742,-4.4769,-4.4808,-4.4771,-4.4634,-4.4617,-4.4602,-4.4563,-4.4773,-4.4773,-4.4773,-4.4773,-4.4574,-4.4566,-4.4674,-4.4735,-4.4793,-4.4792,-4.4912,-4.4933,-4.4946,-4.4962,-4.493,-4.4877,-4.4862,-4.4854,-4.4833,-4.4797,-4.5062,-4.5062,-4.5062,-4.4708,-4.4704,-4.481,-4.4825,-4.4874,-4.4915,-4.5027,-4.5095,-4.5099,-4.5074,-4.4974,-4.4962,-4.4877,-4.4849,-4.4822,-4.479,-4.4722,0,0]}]]